User: anonymous
Location: Fort Wayne
(41.1310°N, 85.1290°W)
Time: 23:57:26
(UTC-04:00)
Language:

Cosmos 2056 Rocket - Orbit

View from above orbital plane
View from above orbital plane
View from above satellite
View from above satellite

Ground track
Ground track

The orbit data is extracted from the following two-line orbital elements,

1 20433U 90004B   14114.11564439  .00000206  00000-0  79922-4 0  7033
2 20433 074.0354 306.9985 0041439 355.4519 143.3742 14.35617277270130
Epoch (UTC): 24 April 2014 02:46:31
Eccentricity: 0.0041439
inclination: 74.0354°
perigee height: 743 km
apogee height: 802 km
right ascension of ascending node: 306.9985°
argument of perigee: 355.4519°
revolutions per day: 14.35617277
mean anomaly at epoch: 143.3742°
orbit number at epoch: 27013

The dashed part of the orbit path shows where the satellite is in the earth's shadow,  

DLR